Location: ?
(35.3436°N, 139.3168°E)
Time: 09:15:30
(UTC+00:00)

X-37B - Pass Details

Date: 11 May 2021
Orbit: 386 x 389 km, 45.0° (Epoch: 10 June)

Event Time Altitude Azimuth Distance (km) Brightness Sun altitude
Rises 10:43:41 0° 306° (NW) 2,272 6.6 -12.8°
Reaches altitude 10° 10:46:15 10° 327° (NNW) 1,416 4.5 -13.3°
Maximum altitude 10:48:28 17° 12° (NNE) 1,060 3.0 -13.7°
Drops below altitude 10° 10:50:41 10° 56° (NE) 1,413 3.2 -14.0°
Enters shadow 10:51:02 - 60° (ENE) 1,511 3.3 -14.1°
